Location: Latina
(41.4670°N, 12.8670°E)
Time: 17:27:43
(UTC+02:00)

ISS - Pass Details

Date: 17 May 2021
Orbit: 417 x 422 km, 51.6° (Epoch: 18 June)

Event Time Altitude Azimuth Distance (km) Brightness Sun altitude
Rises 23:40:07 0° 291° (WNW) 2,365 0.7 -25.9°
Reaches altitude 10° 23:42:53 10° 316° (NW) 1,503 -0.1 -26.1°
Maximum altitude 23:44:57 15° 354° (N) 1,227 -0.6 -26.2°
Drops below altitude 10° 23:47:02 10° 32° (NNE) 1,506 -0.5 -26.4°
Enters shadow 23:49:29 - 54° (NE) 2,256 0.1 -26.5°
